Findlay, OH

4:02 PM EDT on April 25, 2017 (GMT -0400)
Findlay

Weather History for KFDY - October, 2012

Change the Weather History Date:

Thursday, October 18, 2012

  Actual Average Record
Temperature  
Mean Temperature 54 °F -  
Max Temperature 63 °F 58 °F 82 °F (1953)
Min Temperature 46 °F 40 °F 21 °F (1976)
Degree Days  
Heating Degree Days 11    
Growing Degree Days 4 (Base 50)    
Moisture  
Dew Point 42 °F    
Average Humidity 62    
Maximum Humidity 94    
Minimum Humidity 32    
Precipitation  
Precipitation 0.15 in - - ()
Sea Level Pressure  
Sea Level Pressure 29.55 in    
Wind  
Wind Speed 18 mph (SSW)    
Max Wind Speed 24 mph    
Max Gust Speed 39 mph    
Visibility 9 miles    
Events Rain    
Averages and records for this station are not official NWS values.
T = Trace of Precipitation, MM = Missing Value Source: NWS Daily Summary

Daily Weather History Graph

Daily Weather History Graph

Search for Another Location

Airport or City:

Trip Planner

Search our weather history database for the weather conditions in past years. The results will help you decide how hot, cold, wet, or windy it might be!

Date:

Astronomy

Oct. 18, 2012 Rise Set
Actual Time 7:49 AM EDT 6:48 PM EDT
Civil Twilight 7:22 AM EDT 7:16 PM EDT
Nautical Twilight 6:50 AM EDT 7:48 PM EDT
Astronomical Twilight 6:18 AM EDT 8:20 PM EDT
Moon 11:32 AM EDT (10/18) 9:20 PM EDT (10/18)
Length of Visible Light 11h 54m
Length of Day
10h 58m
Waxing Crescent, 14% of the Moon is Illuminated
Oct 18
Waxing Crescent
Oct 21
First Quarter
Oct 29
Full
Nov 6
Last Quarter
Nov 13
New

Hourly Weather History & Observations

Time (EDT) Temp. Dew Point Humidity Pressure Visibility Wind Dir Wind Speed Gust Speed Precip Events Conditions
12:53 AM 62.1 °F 50.0 °F 65% 29.51 in 10.0 mi SSE 17.3 mph 25.3 mph 0.01 in   Partly Cloudy
1:53 AM 61.0 °F 48.0 °F 62% 29.50 in 10.0 mi SSE 17.3 mph - N/A   Clear
2:53 AM 62.1 °F 46.9 °F 58% 29.50 in 10.0 mi SSE 17.3 mph 24.2 mph N/A   Mostly Cloudy
3:53 AM 62.1 °F 45.0 °F 53% 29.46 in 10.0 mi South 21.9 mph 27.6 mph N/A   Clear
4:53 AM 61.0 °F 45.0 °F 56% 29.43 in 10.0 mi SSE 21.9 mph 29.9 mph N/A   Partly Cloudy
5:53 AM 61.0 °F 44.1 °F 54% 29.40 in 10.0 mi SSE 21.9 mph 29.9 mph N/A   Clear
6:53 AM 60.1 °F 46.0 °F 60% 29.42 in 10.0 mi South 21.9 mph 39.1 mph N/A   Overcast
7:53 AM 57.0 °F 51.1 °F 81% 29.44 in 10.0 mi South 16.1 mph 23.0 mph 0.00 in Rain Light Rain
8:53 AM 51.1 °F 46.9 °F 86% 29.49 in 2.0 mi SW 21.9 mph 38.0 mph 0.05 in Rain Heavy Rain
9:02 AM 50.0 °F 48.2 °F 94% 29.51 in 2.5 mi WSW 18.4 mph 27.6 mph 0.04 in Rain Rain
9:09 AM 50.0 °F 48.2 °F 94% 29.51 in 5.0 mi WSW 17.3 mph 25.3 mph 0.05 in Rain Light Rain
9:53 AM 51.1 °F 48.0 °F 89% 29.50 in 10.0 mi SW 15.0 mph - 0.09 in   Overcast
10:53 AM 53.1 °F 48.0 °F 83% 29.54 in 10.0 mi SW 15.0 mph 23.0 mph N/A   Scattered Clouds
11:21 AM 55.4 °F 46.4 °F 72% 29.56 in 10.0 mi SW 19.6 mph 26.5 mph N/A   Mostly Cloudy
11:45 AM 55.4 °F 46.4 °F 72% 29.57 in 10.0 mi SSW 24.2 mph 33.4 mph N/A   Mostly Cloudy
11:53 AM 57.0 °F 46.0 °F 67% 29.57 in 10.0 mi SW 18.4 mph 33.4 mph N/A   Mostly Cloudy
12:00 PM 57.2 °F 44.6 °F 63% 29.58 in 10.0 mi SW 17.3 mph 24.2 mph N/A   Mostly Cloudy
12:08 PM 55.4 °F 44.6 °F 67% 29.58 in 10.0 mi SW 20.7 mph 26.5 mph N/A   Mostly Cloudy
12:53 PM 57.9 °F 39.9 °F 51% 29.58 in 10.0 mi SW 16.1 mph 31.1 mph N/A   Partly Cloudy
1:53 PM 60.1 °F 37.9 °F 44% 29.60 in 10.0 mi SW 19.6 mph 26.5 mph N/A   Clear
2:53 PM 61.0 °F 34.0 °F 36% 29.58 in 10.0 mi SSW 18.4 mph 26.5 mph N/A   Clear
3:53 PM 62.1 °F 32.0 °F 32% 29.58 in 10.0 mi SW 17.3 mph 28.8 mph N/A   Partly Cloudy
4:53 PM 60.1 °F 30.0 °F 32% 29.59 in 10.0 mi SSW 20.7 mph 28.8 mph N/A   Partly Cloudy
5:25 PM 53.6 °F 39.2 °F 58% 29.64 in 10.0 mi WSW 20.7 mph 27.6 mph 0.00 in   Mostly Cloudy
5:53 PM 55.9 °F 36.0 °F 47% 29.61 in 10.0 mi SW 11.5 mph 21.9 mph 0.00 in   Mostly Cloudy
6:53 PM 51.1 °F 36.0 °F 56% 29.63 in 10.0 mi SSW 12.7 mph 20.7 mph N/A   Partly Cloudy
7:53 PM 51.1 °F 35.1 °F 54% 29.65 in 10.0 mi South 10.4 mph - N/A   Scattered Clouds
8:53 PM 48.9 °F 35.1 °F 59% 29.66 in 10.0 mi South 11.5 mph - N/A   Clear
9:53 PM 46.9 °F 36.0 °F 66% 29.67 in 10.0 mi South 10.4 mph - N/A   Clear
10:53 PM 48.9 °F 35.1 °F 59% 29.67 in 10.0 mi SSE 10.4 mph - N/A   Clear
11:53 PM 48.9 °F 35.1 °F 59% 29.65 in 10.0 mi SSE 10.4 mph - N/A   Partly Cloudy